TABS, Texas Automated Buoy System, NOAA HAZMAT, Ocean Observatory, Real Time Oceanographic Data Supporting Oil Spill Prevention and Response

Texas General Land Office  Texas General
 Land Office
 Oil Spill Prevention
 & Response
Texas Automated Buoy System
Real Time Ocean Observations
Supporting Oil Spill Prevention and Response since 1995
Geochemical and Environmental Research Group

TABS Buoy J -- Texas Automated Buoy System

TABS Buoy J Conditions at 05/26/2016 19:00 UTC (05/26/2016 14:00 CDT)
26° 11.4840'N   97° 3.0420'W
AA3900 DCS - sensor depth 2m
Anemometer height: 4m
Water Depth: 68 feet (20 meters)
Speed: 38.44 cm/s (0.75 kts) Direction: 19 °T (NNE) Water Temp: 28°C (82 °F)
System Voltage: 13.2 V Signal Strength: -2.1 dB Ping Count: 131
Wind: 8.8 m/s (17.1 kts)
          From 164°T (SSE)
Air Temp: 27 °C (81 °F)
Relative Humidity:  N/A
Pressure: 1012.5 mb (29.90 inHg)

  


IMPORTANT: Notice to Mariners


Today's System Data (download)

   Date   |  Time  | VBatt |  SigStr| Comp | Nping| Tx | Ty | ADCP | ADCP | VBatt |
          |  (UTC) | (Oper)|   (dB) | (°M) |      |    |    | Volt | Curr |(sleep)|
==========+========+=======+========+======+======+====+====+======+======+=======+
05/26/2016 00:00:00    12.9   -2.80   214.1    131    2    -3    1.0    4.0   -0.1
05/26/2016 00:30:00    12.8   -2.57   215.1    144    2    -3    1.0    4.0   -0.1
05/26/2016 01:00:00    12.7   -2.57   214.1    147    1    -2    1.0    3.0   -0.1
05/26/2016 01:30:00    12.7   -2.54   222.3    133    2    -2    1.0    4.0   -0.1
05/26/2016 02:00:00    12.7   -2.44   214.7    129    2    -3    1.0    4.0   -0.1
05/26/2016 02:30:00    12.7   -2.57   215.2    142    2    -2    1.0    3.0   -0.1
05/26/2016 03:00:00    12.7   -2.57   207.7    129    1    -2    1.0    3.0   -0.1
05/26/2016 03:30:00    12.7   -2.48   210.5    124    2    -3    1.0    4.0   -0.1
05/26/2016 04:00:00    12.7   -2.51   212.9    134    2    -3    1.0    4.0   -0.1
05/26/2016 04:30:00    12.7   -2.29   212.9    140    3    -4    2.0    5.0   -0.1
05/26/2016 05:00:00    12.7   -2.25   218.2    135    3    -4    1.0    5.0   -0.1
05/26/2016 05:30:00    12.7   -2.25   216.4    135    3    -4    2.0    6.0   -0.1
05/26/2016 06:00:00    12.6   -2.39   227.8    133    4    -3    1.0    5.0   -0.1
05/26/2016 06:30:00    12.6   -2.13   241.5    135    3    -2    1.0    5.0   -0.1
05/26/2016 07:00:00    12.6   -2.24   253.2    126    4    -1    1.0    5.0   -0.1
05/26/2016 07:30:00    12.6   -1.96   249.3    137    6    -2    1.0    7.0   -0.1
05/26/2016 08:00:00    12.6   -1.79   229.2    141    6    -8    2.0   12.0   -0.1
05/26/2016 08:30:00    12.6   -1.88   228.8    143    6    -6    2.0    9.0   -0.1
05/26/2016 09:00:00    12.6   -2.05   233.7    145    7    -5    2.0    9.0   -0.1
05/26/2016 09:30:00    12.6   -1.91   237.2    133    7    -5    2.0    9.0   -0.1
05/26/2016 10:00:00    12.6   -2.18   239.7    135    5    -3    1.0    6.0   -0.1
05/26/2016 10:30:00    12.6   -2.36   246.5    131    4    -2    1.0    6.0   -0.1
05/26/2016 11:00:00    12.5   -2.29   245.7    133    4    -2    1.0    6.0   -0.1
05/26/2016 11:30:00    12.5   -2.10   242.0    137    5    -2    1.0    5.0   -0.1
05/26/2016 12:00:00    12.5   -2.47   245.9    138    5    -2    1.0    6.0   -0.1
05/26/2016 12:30:00    12.6   -2.61   245.7    127    4    -2    1.0    5.0   -0.1
05/26/2016 13:00:00    12.6   -2.70   252.3    123    5    -1    1.0    6.0   -0.1
05/26/2016 13:30:00    12.9   -2.77   252.5    130    5    -1    1.0    5.0   -0.1
05/26/2016 14:00:00    12.9   -2.84   259.9    143    5    -1    1.0    6.0   -0.1
05/26/2016 14:30:00    13.2   -2.81   257.8    132    5    -1    1.0    6.0   -0.1
05/26/2016 15:00:00    13.2   -2.85   251.3    137    5    -1    1.0    6.0   -0.1
05/26/2016 15:30:00    13.1   -2.70   248.8    135    6    -2    2.0    7.0   -0.1
05/26/2016 16:00:00    13.2   -2.52   247.2    143    6    -2    2.0    7.0   -0.1
05/26/2016 16:30:00    13.2   -2.48   249.3    138    6    -2    2.0    8.0   -0.1
05/26/2016 17:00:00    13.1   -2.71   252.1    136    6    -2    2.0    7.0   -0.1
05/26/2016 17:30:00    13.3   -2.51   254.2    130    7    -1    2.0    8.0   -0.1
05/26/2016 18:00:00    13.2   -2.33   255.1    132    8    -1    2.0    9.0   -0.1
05/26/2016 18:30:00    13.2   -2.33   258.5    139    8    -1    2.0    9.0   -0.1
05/26/2016 19:00:00    13.2   -2.14   257.2    131    9    -1    2.0   10.0   -0.1